Retour au catalogue

STARLINK-32389

ActifCommunicationsVLEO
NORAD 61549·PAYLOAD·🇺🇸 United States

Lancé Oct 15, 2024 depuis Vandenberg Space Force Base

Loading…

Prochains Passages (prochaines 24 heures)

TLE

FraisSource: CelesTrak SupGP

Époque: Sep 14, 2026, 15:29 UTC

1 61549C 24184T   26257.64562500  .00014487  00000+0  42796-3 0  2575
2 61549  53.1591 214.7927 0001354  87.6873  59.6859 15.34388069    15

Suivez STARLINK-32389 en temps réel avec AllMySat

Download on the App Store